Lincoln, NE

3:14 PM CDT on May 26, 2017 (GMT -0500)
Lincoln Municipal

Weather History for KLNK - March, 2012

Change the Weather History Date:

Thursday, March 22, 2012

  Actual Average Record
Temperature  
Mean Temperature 55 °F 42 °F  
Max Temperature 65 °F 55 °F 90 °F (1910)
Min Temperature 45 °F 30 °F 6 °F (2002)
Degree Days  
Heating Degree Days 10 23  
Month to date heating degree days 303 586  
Since 1 July heating degree days 4697 5289  
Cooling Degree Days 0 0  
Month to date cooling degree days 13 0  
Year to date cooling degree days 13 0  
Growing Degree Days 5 (Base 50)    
Moisture  
Dew Point 49 °F    
Average Humidity 74    
Maximum Humidity 100    
Minimum Humidity 48    
Precipitation  
Precipitation 0.09 in 0.07 in 1.75 in (1979)
Month to date precipitation 0.89 1.24  
Year to date precipitation 3.15 2.65  
Snow  
Snow 0.00 in 0.10 in - ()
Month to date snowfall 0.0 3.7  
Since 1 July snowfall 18.8 23.4  
Snow Depth 0.00 in    
Sea Level Pressure  
Sea Level Pressure 29.91 in    
Wind  
Wind Speed 7 mph (SSE)    
Max Wind Speed 24 mph    
Max Gust Speed 29 mph    
Visibility 7 miles    
Events Fog , Rain    
T = Trace of Precipitation, MM = Missing Value Source: NWS Daily Summary

Daily Weather History Graph

Daily Weather History Graph

Search for Another Location

Airport or City:

Trip Planner

Search our weather history database for the weather conditions in past years. The results will help you decide how hot, cold, wet, or windy it might be!

Date:

Astronomy

Mar. 22, 2012 Rise Set
Actual Time 7:26 AM CDT 7:41 PM CDT
Civil Twilight 6:58 AM CDT 8:09 PM CDT
Nautical Twilight 6:26 AM CDT 8:41 PM CDT
Astronomical Twilight 5:53 AM CDT 9:14 PM CDT
Moon 7:05 AM CDT (3/22) 8:08 PM CDT (3/22)
Length of Visible Light 13h 10m
Length of Day
12h 15m
New Moon, 0% of the Moon is Illuminated
Mar 22
New Moon
Mar 30
First Quarter
Apr 6
Full
Apr 13
Last Quarter
Apr 21
New

Hourly Weather History & Observations

Time (CDT) Temp. Windchill Dew Point Humidity Pressure Visibility Wind Dir Wind Speed Gust Speed Precip Events Conditions
12:13 AM 60.8 °F - 57.2 °F 88% 29.84 in 9.0 mi East 15.0 mph - 0.00 in Rain Light Rain
12:33 AM 59.0 °F - 57.2 °F 94% 29.84 in 5.0 mi ENE 12.7 mph - 0.01 in Rain Light Rain
12:54 AM 59.0 °F - 57.9 °F 96% 29.83 in 10.0 mi East 10.4 mph - 0.01 in   Overcast
1:05 AM 59.0 °F - 57.2 °F 94% 29.84 in 10.0 mi East 11.5 mph - N/A   Overcast
1:16 AM 60.8 °F - 57.2 °F 88% 29.84 in 9.0 mi East 11.5 mph 20.7 mph 0.01 in Rain Light Rain
1:24 AM 60.8 °F - 57.2 °F 88% 29.84 in 10.0 mi East 13.8 mph - 0.01 in   Overcast
1:34 AM 60.8 °F - 57.2 °F 88% 29.84 in 5.0 mi East 13.8 mph - 0.02 in Rain Rain
1:54 AM 57.9 °F - 55.9 °F 93% 29.84 in 8.0 mi SSE 10.4 mph - 0.04 in Rain Light Rain
2:19 AM 53.6 °F - 53.6 °F 100% 29.86 in 6.0 mi South 9.2 mph - 0.00 in Rain Light Rain
2:34 AM 53.6 °F - 53.6 °F 100% 29.86 in 5.0 mi SSE 4.6 mph - 0.03 in Rain Rain
2:54 AM 53.1 °F - 52.0 °F 96% 29.87 in 10.0 mi SSE 8.1 mph - 0.03 in   Overcast
3:13 AM 53.6 °F - 51.8 °F 94% 29.87 in 10.0 mi SSE 6.9 mph - N/A   Overcast
3:54 AM 52.0 °F - 51.1 °F 97% 29.87 in 10.0 mi South 8.1 mph - N/A   Overcast
4:54 AM 51.1 °F - 48.9 °F 92% 29.88 in 10.0 mi South 5.8 mph - N/A   Overcast
5:54 AM 46.9 °F - 46.0 °F 97% 29.89 in 10.0 mi South 5.8 mph - N/A   Clear
6:54 AM 48.0 °F - 46.9 °F 96% 29.91 in 10.0 mi Calm Calm - N/A   Clear
7:42 AM 46.4 °F - 46.4 °F 100% 29.94 in 0.8 mi Calm Calm - N/A   Mist
7:50 AM 46.4 °F - 46.4 °F 100% 29.94 in 7.0 mi Calm Calm - N/A Fog Shallow Fog
7:54 AM 46.0 °F 44.8 °F 46.0 °F 100% 29.94 in 5.0 mi South 3.5 mph - N/A Fog Shallow Fog
7:56 AM 46.4 °F 45.2 °F 46.4 °F 100% 29.94 in 1.2 mi South 3.5 mph - N/A Fog Shallow Fog
8:02 AM 46.4 °F 45.2 °F 46.4 °F 100% 29.94 in 3.0 mi SSE 3.5 mph - N/A Fog Shallow Fog
8:06 AM 46.4 °F 44.3 °F 46.4 °F 100% 29.94 in 5.0 mi South 4.6 mph - N/A Fog Shallow Fog
8:33 AM 46.4 °F 44.3 °F 46.4 °F 100% 29.95 in 1.5 mi South 4.6 mph - N/A   Overcast
8:35 AM 46.4 °F 44.3 °F 46.4 °F 100% 29.95 in 0.5 mi South 4.6 mph - N/A   Overcast
8:48 AM 46.4 °F 44.3 °F 46.4 °F 100% 29.95 in 1.0 mi SSW 4.6 mph - N/A   Overcast
8:54 AM 46.9 °F - 46.9 °F 100% 29.95 in 1.0 mi SSW 3.5 mph - N/A   Overcast
9:22 AM 46.4 °F - 46.4 °F 100% 29.95 in 2.5 mi Calm Calm - N/A   Overcast
9:29 AM 48.2 °F - 48.2 °F 100% 29.95 in 4.0 mi Calm Calm - N/A   Overcast
9:54 AM 48.9 °F - 48.0 °F 97% 29.95 in 4.0 mi South 4.6 mph - N/A   Mostly Cloudy
10:13 AM 51.8 °F - 48.2 °F 88% 29.95 in 8.0 mi South 6.9 mph - N/A   Scattered Clouds
10:54 AM 53.1 °F - 48.0 °F 83% 29.96 in 9.0 mi South 8.1 mph - N/A   Scattered Clouds
11:22 AM 55.4 °F - 48.2 °F 77% 29.96 in 10.0 mi SSW 9.2 mph - N/A   Mostly Cloudy
11:54 AM 55.9 °F - 46.9 °F 72% 29.95 in 10.0 mi SSE 6.9 mph - N/A   Mostly Cloudy
12:01 PM 55.4 °F - 46.4 °F 72% 29.96 in 10.0 mi South 5.8 mph - N/A   Partly Cloudy
12:54 PM 57.9 °F - 46.9 °F 67% 29.94 in 10.0 mi ESE 3.5 mph - N/A   Scattered Clouds
1:54 PM 60.1 °F - 45.0 °F 57% 29.93 in 10.0 mi ESE 6.9 mph 17.3 mph N/A   Partly Cloudy
2:54 PM 62.1 °F - 44.1 °F 52% 29.91 in 10.0 mi SSE 11.5 mph - N/A   Mostly Cloudy
3:54 PM 62.1 °F - 44.1 °F 52% 29.90 in 10.0 mi East 10.4 mph - N/A   Mostly Cloudy
4:54 PM 64.9 °F - 44.1 °F 47% 29.88 in 10.0 mi SE 8.1 mph - N/A   Mostly Cloudy
5:54 PM 63.0 °F - 44.1 °F 50% 29.89 in 10.0 mi Calm Calm - N/A   Clear
6:54 PM 61.0 °F - 44.1 °F 54% 29.89 in 10.0 mi East 6.9 mph - N/A   Clear
7:54 PM 55.0 °F - 45.0 °F 69% 29.90 in 10.0 mi West 8.1 mph - N/A   Scattered Clouds
8:54 PM 51.1 °F - 45.0 °F 80% 29.95 in 7.0 mi South 23.0 mph 28.8 mph 0.00 in Rain Light Rain
9:01 PM 51.8 °F - 46.4 °F 82% 29.95 in 7.0 mi South 13.8 mph 28.8 mph 0.01 in Rain Light Rain
9:54 PM 51.1 °F - 46.9 °F 86% 29.96 in 10.0 mi Calm Calm - 0.01 in   Overcast
10:54 PM 51.1 °F - 46.9 °F 86% 29.94 in 7.0 mi NW 4.6 mph - 0.01 in Rain Light Rain
11:54 PM 50.0 °F - 48.0 °F 93% 29.93 in 10.0 mi North 6.9 mph - 0.00 in   Overcast